Kaneohe MCBH, HI

12:38 AM HST on May 27, 2017 (GMT -1000)
Kaneohe Bay Marine Corps Air Facility

Weather History for PHNG - October, 2012

Change the Weather History Date:

Wednesday, October 17, 2012

  Actual Average Record
Temperature  
Mean Temperature 78 °F -  
Max Temperature 84 °F 81 °F 87 °F (2006)
Min Temperature 73 °F 72 °F 72 °F (2006)
Cooling Degree Days 14    
Growing Degree Days 28 (Base 50)    
Moisture  
Dew Point 69 °F    
Average Humidity 75    
Maximum Humidity 88    
Minimum Humidity 58    
Precipitation  
Precipitation 0.00 in - - ()
Sea Level Pressure  
Sea Level Pressure 29.95 in    
Wind  
Wind Speed 5 mph (East)    
Max Wind Speed 13 mph    
Max Gust Speed 17 mph    
Visibility 9 miles    
Events Rain    
Averages and records for this station are not official NWS values.
T = Trace of Precipitation, MM = Missing Value Source: NWS Daily Summary

Daily Weather History Graph

Daily Weather History Graph

Search for Another Location

Airport or City:

Trip Planner

Search our weather history database for the weather conditions in past years. The results will help you decide how hot, cold, wet, or windy it might be!

Date:

Astronomy

Oct. 17, 2012 Rise Set
Actual Time 6:27 AM HST 6:04 PM HST
Civil Twilight 6:05 AM HST 6:26 PM HST
Nautical Twilight 5:39 AM HST 6:52 PM HST
Astronomical Twilight 5:13 AM HST 7:18 PM HST
Moon 8:53 AM HST (10/17) 8:14 PM HST (10/17)
Length of Visible Light 12h 21m
Length of Day
11h 36m
Waxing Crescent, 8% of the Moon is Illuminated
Oct 17
Waxing Crescent
Oct 21
First Quarter
Oct 29
Full
Nov 6
Last Quarter
Nov 13
New

Hourly Weather History & Observations

Time (HST) Temp. Heat Index Dew Point Humidity Pressure Visibility Wind Dir Wind Speed Gust Speed Precip Events Conditions
12:26 AM 75.2 °F - 69.8 °F 83% 29.98 in 6.2 mi ESE 5.8 mph - N/A   Overcast
12:34 AM 75.2 °F - 69.8 °F 83% 29.98 in 6.2 mi ESE 3.5 mph - N/A   Mostly Cloudy
12:57 AM 75.2 °F - 69.1 °F 81% 29.96 in 10.0 mi East 5.8 mph - N/A   Scattered Clouds
1:57 AM 75.2 °F - 69.1 °F 81% 29.94 in 10.0 mi Calm Calm - N/A   Scattered Clouds
2:57 AM 75.2 °F - 69.1 °F 81% 29.93 in 10.0 mi SSW 3.5 mph - N/A   Clear
3:57 AM 74.1 °F - 70.0 °F 87% 29.91 in 10.0 mi Calm Calm - N/A   Clear
4:57 AM 73.4 °F - 69.8 °F 88% 29.92 in 10.0 mi Calm Calm - N/A   Clear
6:57 AM 73.4 °F - 68.0 °F 83% 29.94 in 10.0 mi Calm Calm - N/A   Scattered Clouds
7:57 AM 73.4 °F - 69.6 °F 88% 29.97 in 10.0 mi Calm Calm - N/A   Mostly Cloudy
8:08 AM 73.4 °F - 69.8 °F 88% 29.98 in 6.2 mi Calm Calm - 0.00 in Rain Light Rain
8:39 AM 75.2 °F - 69.8 °F 83% 29.99 in 6.2 mi East 9.2 mph - 0.00 in   Mostly Cloudy
8:57 AM 80.6 °F 84.6 °F 71.8 °F 74% 29.98 in 10.0 mi East 9.2 mph - 0.00 in   Mostly Cloudy
9:57 AM 82.4 °F 87.2 °F 71.8 °F 70% 29.99 in 10.0 mi East 9.2 mph - N/A   Mostly Cloudy
10:57 AM 82.4 °F 86.3 °F 70.0 °F 66% 29.98 in 10.0 mi East 10.4 mph - N/A   Overcast
11:57 AM 82.4 °F 86.3 °F 70.0 °F 66% 29.96 in 10.0 mi East 10.4 mph 17.3 mph N/A   Mostly Cloudy
12:57 PM 84.2 °F 87.3 °F 68.0 °F 58% 29.93 in 10.0 mi East 12.7 mph 16.1 mph N/A   Mostly Cloudy
1:57 PM 84.2 °F 87.3 °F 68.0 °F 58% 29.91 in 10.0 mi ENE 8.1 mph - N/A   Mostly Cloudy
2:57 PM 84.2 °F 87.9 °F 69.1 °F 60% 29.91 in 10.0 mi ENE 8.1 mph - N/A   Scattered Clouds
3:57 PM 84.2 °F 87.3 °F 68.0 °F 58% 29.91 in 10.0 mi East 11.5 mph - N/A   Mostly Cloudy
4:57 PM 78.8 °F - 68.0 °F 69% 29.92 in 10.0 mi Variable 4.6 mph - N/A   Partly Cloudy
5:57 PM 78.8 °F - 66.9 °F 67% 29.93 in 10.0 mi East 4.6 mph - N/A   Mostly Cloudy
6:57 PM 78.8 °F - 68.0 °F 69% 29.95 in 10.0 mi Calm Calm - N/A   Overcast
7:57 PM 77.0 °F - 68.0 °F 74% 29.96 in 10.0 mi East 8.1 mph - N/A   Mostly Cloudy
8:57 PM 77.0 °F - 69.1 °F 76% 29.98 in 10.0 mi East 5.8 mph - N/A   Mostly Cloudy
9:57 PM 77.0 °F - 69.1 °F 76% 29.99 in 10.0 mi Variable 4.6 mph - N/A   Mostly Cloudy
10:57 PM 76.1 °F - 68.0 °F 76% 29.99 in 10.0 mi ESE 4.6 mph - N/A   Partly Cloudy
11:57 PM 75.2 °F - 68.0 °F 78% 29.99 in 10.0 mi East 4.6 mph - N/A   Overcast